Regional Weather Roundup
Issued by NWS

Home | Current Version | Previous Version | Text Only | Print | Product List | Glossary Off
Versions: 1 2 3 4 5 6 7 8 9 10 11 12 13 14 15 16 17 18 19 20 21 22 23 24 25 26 27 28 29 30 31 32 33 34 35 36 37 38 39 40 41 42 43 44 45 46 47 48 49 50

000
ASUS45 KCYS 061410
RWRWY

WYOMING REGIONAL WEATHER ROUNDUP
NATIONAL WEATHER SERVICE CHEYENNE WY
800 AM MDT FRI MAY 06 2016

NOTE:  "FAIR" INDICATES FEW OR NO CLOUDS BELOW 12,000 FEET
WITH NO SIGNIFICANT WEATHER AND/OR OBSTRUCTIONS TO VISIBILITY.

WYZ001-061500-
YELLOWSTONE NATIONAL PARK

CITY           SKY/WX    TMP DP  RH WIND       PRES   REMARKS
LK YELLOWSTONE   N/A     40  33  76 CALM      30.15R
W YELLOWSTONE  NOT AVBL

$$
WYZ002>013-054>058-071-098>099-061500-
NORTHERN WYOMING

CITY           SKY/WX    TMP DP  RH WIND       PRES   REMARKS
JACKSON        CLOUDY    45  36  70 CALM      30.10R
CODY           FAIR      54  37  54 N23G33    30.11R
GREYBULL       FAIR      62  39  42 NW17G29   29.96R HAZE
WORLAND        FAIR      59  41  51 NW12      30.01R
SHERIDAN       FAIR      55  43  63 NW31G39   30.11R HAZE
BUFFALO        FAIR      58  41  53 NW26G40   30.07R
GILLETTE       FAIR      57  42  57 NW9       30.00R
HULETT         FAIR      54  43  66 CALM      29.99R
NEWCASTLE      FAIR      59  37  44 CALM      29.97R

$$
WYZ014>020-022>026-101>103-061500-
CENTRAL WYOMING

CITY           SKY/WX    TMP DP  RH WIND       PRES   REMARKS
BIG PINEY      CLOUDY    52  36  54 NE3       30.07S
PINEDALE       CLOUDY    48  34  57 W6        30.09S
DUBOIS         CLOUDY    43  32  65 NW5       30.11R
LANDER         CLOUDY    52  37  56 NW3       30.00R
RIVERTON       CLOUDY    56  38  50 N13       30.01R
CASPER         FAIR      50  44  80 CALM      29.99R
DOUGLAS        FAIR      50  44  80 NW3       29.99R

$$
WYZ021-027>030-104>119-061500-
SOUTHERN WYOMING

CITY           SKY/WX    TMP DP  RH WIND       PRES   REMARKS
EVANSTON       CLOUDY    50  38  63 SE5       30.01R
KEMMERER         N/A    N/A N/A N/A NE14      30.02F
FORT BRIDGER   MOSUNNY   50  45  81 SE8       30.04R
ROCK SPRINGS   PTSUNNY   51  39  63 NE8       30.03F
DIXON          CLOUDY    50  37  61 E5        30.10S
RAWLINS        FAIR      53  38  56 CALM      30.07R
SARATOGA       FAIR      52  36  54 W12       30.09R
LARAMIE        FAIR      48  41  76 SE6       30.07S
CHEYENNE       FAIR      54  43  66 W6        30.02R
TORRINGTON     FAIR      55  45  68 CALM      29.94R
PINE BLUFFS    FAIR      54  45  71 CALM      30.00S

$$



USA.gov is the U.S. government's official web portal to all federal, state and local government web resources and services.